Time,TemperatureF,DewpointF,PressureIn,WindDirection,WindDirectionDegrees,WindSpeedMPH,WindSpeedGustMPH,Humidity,HourlyPrecipIn,Conditions,Clouds,dailyrainin,SolarRadiationWatts/m^2,SoftwareType,DateUTC
2017-12-12 00:03:00,20.3,17.1,30.03,WSW,246,0.0,0.0,87,0.00,,,0.00,0,WeatherCatV2.40B198,2017-12-12 05:03:00,
2017-12-12 00:08:00,20.2,17.0,30.03,WSW,246,0.0,0.0,87,0.00,,,0.00,0,WeatherCatV2.40B198,2017-12-12 05:08:00,
2017-12-12 00:13:00,20.1,17.1,30.04,WSW,246,0.0,0.0,88,0.00,,,0.00,0,WeatherCatV2.40B198,2017-12-12 05:13:00,
2017-12-12 00:18:00,20.0,17.0,30.04,WSW,246,0.0,0.0,88,0.00,,,0.00,0,WeatherCatV2.40B198,2017-12-12 05:18:00,
2017-12-12 00:23:00,19.9,16.9,30.04,WSW,246,0.0,0.0,88,0.00,,,0.00,0,WeatherCatV2.40B198,2017-12-12 05:23:00,
2017-12-12 00:28:00,19.8,16.8,30.04,WSW,246,0.0,0.0,88,0.00,,,0.00,0,WeatherCatV2.40B198,2017-12-12 05:28:00,
2017-12-12 00:33:00,19.7,16.7,30.04,WSW,246,0.0,0.0,88,0.00,,,0.00,0,WeatherCatV2.40B198,2017-12-12 05:33:00,
2017-12-12 00:38:00,19.7,16.7,30.04,WSW,246,0.0,0.0,88,0.00,,,0.00,0,WeatherCatV2.40B198,2017-12-12 05:38:00,
2017-12-12 00:43:00,19.7,16.7,30.04,WSW,246,0.0,0.0,88,0.00,,,0.00,0,WeatherCatV2.40B198,2017-12-12 05:43:00,
2017-12-12 00:48:00,19.7,17.0,30.03,WSW,246,0.0,0.0,89,0.00,,,0.00,0,WeatherCatV2.40B198,2017-12-12 05:48:00,
2017-12-12 00:53:00,19.7,17.0,30.03,WSW,248,0.0,0.0,89,0.00,,,0.00,0,WeatherCatV2.40B198,2017-12-12 05:53:00,
2017-12-12 00:58:00,19.7,17.0,30.03,WSW,248,0.0,0.0,89,0.00,,,0.00,0,WeatherCatV2.40B198,2017-12-12 05:58:00,
2017-12-12 01:03:00,19.7,17.2,30.03,WSW,248,0.0,0.0,90,0.00,,,0.00,0,WeatherCatV2.40B198,2017-12-12 06:03:00,
2017-12-12 01:08:00,19.7,17.2,30.04,WSW,248,0.0,0.0,90,0.00,,,0.00,0,WeatherCatV2.40B198,2017-12-12 06:08:00,
2017-12-12 01:13:00,19.7,17.2,30.04,WSW,248,0.0,0.0,90,0.00,,,0.00,0,WeatherCatV2.40B198,2017-12-12 06:13:00,
2017-12-12 01:18:00,19.7,17.2,30.04,WSW,248,0.0,0.0,90,0.00,,,0.00,0,WeatherCatV2.40B198,2017-12-12 06:18:00,
2017-12-12 01:23:00,19.7,17.2,30.04,WSW,248,0.0,0.0,90,0.00,,,0.00,0,WeatherCatV2.40B198,2017-12-12 06:23:00,
2017-12-12 01:28:00,19.8,17.4,30.04,WSW,248,0.0,0.0,90,0.00,,,0.00,0,WeatherCatV2.40B198,2017-12-12 06:28:00,
2017-12-12 01:33:00,19.8,17.4,30.04,WSW,248,0.0,0.0,90,0.00,,,0.00,0,WeatherCatV2.40B198,2017-12-12 06:33:00,
2017-12-12 01:38:00,19.9,17.5,30.04,WSW,248,0.0,0.0,90,0.00,,,0.00,0,WeatherCatV2.40B198,2017-12-12 06:38:00,
2017-12-12 01:43:00,20.0,17.3,30.03,NNE,21,0.0,2.0,89,0.00,,,0.00,0,WeatherCatV2.40B198,2017-12-12 06:43:00,
2017-12-12 01:48:00,20.0,16.8,30.03,NNE,21,0.0,0.0,87,0.00,,,0.00,0,WeatherCatV2.40B198,2017-12-12 06:48:00,
2017-12-12 01:49:00,20.0,16.8,30.03,NNE,21,0.0,0.0,87,0.00,,,0.00,0,WeatherCatV2.40B198,2017-12-12 06:49:00,
2017-12-12 01:54:00,20.2,16.4,30.03,WNW,294,0.0,0.0,85,0.00,,,0.00,0,WeatherCatV2.40B198,2017-12-12 06:54:00,
2017-12-12 01:59:00,20.3,16.2,30.03,NNW,332,0.0,0.0,84,0.00,,,0.00,0,WeatherCatV2.40B198,2017-12-12 06:59:00,
2017-12-12 02:04:00,20.4,15.8,30.03,ENE,76,0.0,0.0,82,0.00,,,0.00,0,WeatherCatV2.40B198,2017-12-12 07:04:00,
2017-12-12 02:09:00,20.4,15.5,30.03,ENE,76,0.0,0.0,81,0.00,,,0.00,0,WeatherCatV2.40B198,2017-12-12 07:09:00,
2017-12-12 02:14:00,20.5,15.6,30.03,ENE,76,0.0,0.0,81,0.00,,,0.00,0,WeatherCatV2.40B198,2017-12-12 07:14:00,
2017-12-12 02:19:00,20.6,16.0,30.03,ENE,76,0.0,0.0,82,0.00,,,0.00,0,WeatherCatV2.40B198,2017-12-12 07:19:00,
2017-12-12 02:24:00,20.5,16.2,30.03,ENE,76,0.0,0.0,83,0.00,,,0.00,0,WeatherCatV2.40B198,2017-12-12 07:24:00,
2017-12-12 02:29:00,20.6,16.3,30.03,ENE,76,0.0,0.0,83,0.00,,,0.00,0,WeatherCatV2.40B198,2017-12-12 07:29:00,
2017-12-12 02:34:00,20.6,16.5,30.03,ENE,76,0.0,0.0,84,0.00,,,0.00,0,WeatherCatV2.40B198,2017-12-12 07:34:00,
2017-12-12 02:39:00,20.6,16.3,30.03,ENE,76,0.0,0.0,83,0.00,,,0.00,0,WeatherCatV2.40B198,2017-12-12 07:39:00,
2017-12-12 02:54:00,20.5,16.5,30.02,ENE,76,0.0,0.0,84,0.00,,,0.00,0,WeatherCatV2.40B198,2017-12-12 07:54:00,
2017-12-12 02:59:00,20.5,16.7,30.02,ENE,76,0.0,0.0,85,0.00,,,0.00,0,WeatherCatV2.40B198,2017-12-12 07:59:00,
2017-12-12 03:00:00,20.5,16.7,30.02,ENE,76,0.0,0.0,85,0.00,,,0.00,0,WeatherCatV2.40B198,2017-12-12 08:00:00,
2017-12-12 03:05:00,20.4,16.6,30.02,ENE,76,0.0,0.0,85,0.00,,,0.00,0,WeatherCatV2.40B198,2017-12-12 08:05:00,
2017-12-12 03:10:00,20.3,16.5,30.02,ENE,76,0.0,0.0,85,0.00,,,0.00,0,WeatherCatV2.40B198,2017-12-12 08:10:00,
2017-12-12 03:15:00,20.3,16.8,30.02,ENE,76,0.0,0.0,86,0.00,,,0.00,0,WeatherCatV2.40B198,2017-12-12 08:15:00,
2017-12-12 03:20:00,20.2,16.7,30.02,ENE,76,0.0,0.0,86,0.00,,,0.00,0,WeatherCatV2.40B198,2017-12-12 08:20:00,
2017-12-12 03:25:00,20.2,16.7,30.02,ENE,76,0.0,0.0,86,0.00,,,0.00,0,WeatherCatV2.40B198,2017-12-12 08:25:00,
2017-12-12 03:30:00,20.1,16.6,30.01,ENE,76,0.0,0.0,86,0.00,,,0.00,0,WeatherCatV2.40B198,2017-12-12 08:30:00,
2017-12-12 03:35:00,20.0,16.5,30.01,ENE,76,0.0,0.0,86,0.00,,,0.00,0,WeatherCatV2.40B198,2017-12-12 08:35:00,
2017-12-12 03:40:00,19.9,16.4,30.01,ENE,76,0.0,0.0,86,0.00,,,0.00,0,WeatherCatV2.40B198,2017-12-12 08:40:00,
2017-12-12 03:45:00,19.8,16.3,30.02,ENE,76,0.0,0.0,86,0.00,,,0.00,0,WeatherCatV2.40B198,2017-12-12 08:45:00,
2017-12-12 03:50:00,19.7,16.5,30.01,ENE,76,0.0,0.0,87,0.00,,,0.00,0,WeatherCatV2.40B198,2017-12-12 08:50:00,
2017-12-12 03:55:00,19.7,16.2,30.00,ENE,76,0.0,0.0,86,0.00,,,0.00,0,WeatherCatV2.40B198,2017-12-12 08:55:00,
2017-12-12 04:00:00,19.7,16.2,30.00,ENE,76,0.0,0.0,86,0.00,,,0.00,0,WeatherCatV2.40B198,2017-12-12 09:00:00,
2017-12-12 04:05:00,19.6,16.1,30.00,ENE,76,0.0,0.0,86,0.00,,,0.00,0,WeatherCatV2.40B198,2017-12-12 09:05:00,
2017-12-12 04:10:00,19.5,16.3,30.00,ENE,76,0.0,0.0,87,0.00,,,0.00,0,WeatherCatV2.40B198,2017-12-12 09:10:00,
2017-12-12 04:15:00,19.4,16.2,30.00,ENE,76,0.0,0.0,87,0.00,,,0.00,0,WeatherCatV2.40B198,2017-12-12 09:15:00,
2017-12-12 04:20:00,19.4,16.2,30.00,ENE,76,0.0,0.0,87,0.00,,,0.00,0,WeatherCatV2.40B198,2017-12-12 09:20:00,
2017-12-12 04:25:00,19.2,16.0,30.00,ENE,76,0.0,0.0,87,0.00,,,0.00,0,WeatherCatV2.40B198,2017-12-12 09:25:00,
2017-12-12 04:30:00,19.2,16.0,30.00,ENE,75,0.0,0.0,87,0.00,,,0.00,0,WeatherCatV2.40B198,2017-12-12 09:30:00,
2017-12-12 04:35:00,19.1,15.9,30.00,ENE,75,0.0,0.0,87,0.00,,,0.00,0,WeatherCatV2.40B198,2017-12-12 09:35:00,
2017-12-12 04:40:00,19.0,15.8,29.99,ENE,75,0.0,0.0,87,0.00,,,0.00,0,WeatherCatV2.40B198,2017-12-12 09:40:00,
2017-12-12 04:45:00,19.0,15.8,29.99,ENE,75,0.0,1.0,87,0.00,,,0.00,0,WeatherCatV2.40B198,2017-12-12 09:45:00,
2017-12-12 04:50:00,18.8,15.6,29.99,ENE,75,1.0,1.0,87,0.00,,,0.00,0,WeatherCatV2.40B198,2017-12-12 09:50:00,
2017-12-12 04:55:00,18.5,15.0,29.98,ENE,75,0.0,0.0,86,0.00,,,0.00,0,WeatherCatV2.40B198,2017-12-12 09:55:00,
2017-12-12 05:00:00,18.4,15.2,29.99,ENE,75,0.0,0.0,87,0.00,,,0.00,0,WeatherCatV2.40B198,2017-12-12 10:00:00,
2017-12-12 05:05:00,18.3,15.1,29.98,North,350,0.0,3.0,87,0.00,,,0.00,0,WeatherCatV2.40B198,2017-12-12 10:05:00,
2017-12-12 05:10:00,18.2,15.3,29.99,NNW,348,0.0,0.0,88,0.00,,,0.00,0,WeatherCatV2.40B198,2017-12-12 10:10:00,
2017-12-12 05:15:00,18.1,15.2,29.99,NNW,348,0.0,2.0,88,0.00,,,0.00,0,WeatherCatV2.40B198,2017-12-12 10:15:00,
2017-12-12 05:20:00,18.0,14.8,29.99,North,355,0.0,2.0,87,0.00,,,0.00,0,WeatherCatV2.40B198,2017-12-12 10:20:00,
2017-12-12 05:25:00,17.9,14.7,29.99,North,355,0.0,0.0,87,0.00,,,0.00,0,WeatherCatV2.40B198,2017-12-12 10:25:00,
2017-12-12 05:30:00,17.8,14.6,29.99,North,355,0.0,0.0,87,0.00,,,0.00,0,WeatherCatV2.40B198,2017-12-12 10:30:00,
2017-12-12 05:35:00,17.7,14.5,29.98,North,355,0.0,0.0,87,0.00,,,0.00,0,WeatherCatV2.40B198,2017-12-12 10:35:00,
2017-12-12 05:40:00,17.7,14.8,29.99,North,355,0.0,0.0,88,0.00,,,0.00,0,WeatherCatV2.40B198,2017-12-12 10:40:00,